Wind_Speed
34 36 38 39 39 37 36 37 38 37 33 31 31 31 32 33 37 43 42 39 36 35 39 40 41 43 43 43 41 38 38 40 41 42 42 41 39 38 37 33 28 28 28 25 24 22 23 25 26 26 27 27 28 27 27 27 25 24 24 24 23 23 25 27 30 32 32 33 33 34 34 34 35 36 37 37 37 38 37 36 36 36 35 34 33 33
38 42 44 43 40 38 38 37 33 31 30 29 29 31 34 37 43 47 42 39 38 37 40 40 40 42 44 45 43 43 44 44 43 41 41 40 39 38 35 31 28 28 28 26 24 22 23 26 26 26 26 26 25 25 24 24 23 23 23 23 22 24 26 28 29 30 31 32 33 34 34 34 36 37 37 38 37 38 38 37 36 36 35 35 34 34
43 48 50 44 40 40 39 38 35 34 35 34 35 36 38 42 46 46 42 38 37 38 39 38 39 43 46 47 46 47 49 48 45 41 40 39 37 35 31 29 28 28 28 26 24 22 24 27 26 26 27 25 23 23 23 23 23 22 22 21 22 24 26 27 28 28 30 32 34 35 35 36 37 37 38 38 38 38 37 37 36 36 36 34 34 34
46 47 47 41 39 40 40 39 36 37 40 41 40 39 42 44 42 42 42 37 36 37 37 38 42 48 50 50 50 49 48 45 41 37 37 36 35 32 29 28 28 29 29 28 24 23 24 26 26 27 26 24 22 22 22 22 22 21 20 21 23 25 27 27 27 26 28 31 34 35 36 38 38 38 38 38 38 38 37 37 36 36 35 35 35 35
50 47 43 41 41 42 43 41 36 37 44 46 41 38 43 46 43 42 41 36 36 37 38 40 43 48 48 47 50 46 42 40 36 35 37 35 33 30 28 28 26 26 27 26 24 23 25 26 26 27 25 23 22 21 21 21 21 20 20 22 25 27 27 28 27 26 27 29 32 35 36 38 38 38 39 39 38 37 37 37 36 36 36 36 36 35
50 45 41 42 43 43 44 44 39 39 46 48 43 40 43 44 42 40 37 33 32 34 36 30 24 30 36 38 44 43 39 40 38 38 39 36 32 30 27 23 20 23 27 27 25 24 24 24 25 25 23 22 21 19 20 21 20 19 20 23 27 28 28 29 29 27 28 29 31 33 34 36 38 38 38 38 37 37 37 37 37 37 37 36 36 36
45 42 42 42 42 42 42 43 41 39 44 47 44 41 41 40 38 36 34 31 26 25 25 14 9 23 39 43 44 43 41 43 43 42 42 38 33 26 20 19 21 23 23 22 21 20 20 22 23 23 22 21 19 19 21 22 21 20 21 25 27 27 29 29 29 27 28 30 30 31 32 34 37 37 38 37 38 38 38 38 38 37 37 37 37 37
41 39 40 41 41 41 41 42 40 36 38 44 43 38 36 34 33 32 32 31 30 31 29 20 15 24 43 52 46 43 40 40 43 43 42 38 29 21 18 21 21 15 14 17 19 20 20 22 23 22 21 21 19 19 21 21 21 20 22 24 25 26 29 29 27 27 27 29 29 29 30 33 35 36 37 37 38 39 38 38 38 37 38 38 38 37
44 41 41 41 39 39 41 41 38 34 35 40 39 35 32 29 30 31 32 32 31 31 25 21 18 16 36 52 41 35 35 37 43 42 37 32 25 23 23 21 14 9 11 18 22 24 24 24 22 21 21 21 20 19 19 20 22 21 24 24 24 26 29 29 27 26 26 29 29 28 29 31 33 35 37 37 38 38 37 37 38 38 39 38 38 38
43 43 44 43 40 39 42 40 37 36 36 38 37 35 31 28 29 29 30 32 27 24 19 18 18 12 30 55 39 26 31 36 40 34 27 27 25 26 26 22 17 13 14 17 21 26 24 22 20 19 20 19 19 19 18 21 23 23 26 26 26 28 30 29 28 26 26 28 29 27 28 30 31 34 36 37 37 37 37 37 38 39 39 38 38 38
43 45 44 42 41 40 40 38 37 37 36 37 36 34 31 28 30 27 28 27 16 19 25 25 28 20 20 37 26 21 29 31 30 26 25 28 26 26 28 29 28 25 23 20 19 21 20 21 20 18 19 18 19 20 20 22 23 25 29 28 28 30 31 30 29 28 26 27 29 27 27 28 30 33 35 36 36 36 37 38 38 39 39 39 38 38
43 44 44 43 42 40 39 39 39 39 38 37 34 32 28 22 21 17 16 13 4 13 24 20 24 26 23 22 15 15 20 17 18 20 21 26 26 28 33 35 35 32 30 23 17 18 18 18 18 18 19 18 19 21 21 23 25 27 30 29 30 32 32 31 29 29 28 27 28 27 26 27 28 31 33 34 35 36 37 38 38 39 39 39 38 38
43 45 43 41 41 39 39 39 40 39 39 39 37 31 18 8 8 6 3 4 7 19 27 20 16 25 39 43 33 27 23 19 21 19 17 22 28 34 37 35 33 31 29 24 18 17 16 15 18 20 20 20 20 22 23 25 27 29 30 30 32 33 33 33 31 29 28 27 27 27 26 26 27 29 31 33 35 36 37 38 39 39 39 39 38 38
31 37 38 37 38 38 38 40 40 40 40 40 40 33 18 6 2 4 4 4 10 22 29 26 19 21 33 41 36 35 34 32 31 22 19 21 30 36 37 34 32 30 26 23 19 16 16 16 22 22 21 21 22 22 24 26 28 30 32 32 33 34 34 33 32 30 28 26 26 27 27 26 26 28 29 31 34 35 36 37 39 39 39 39 39 39
18 27 37 35 32 35 37 36 34 37 39 41 40 33 27 21 9 4 6 6 7 14 20 15 13 13 20 23 26 29 29 27 27 24 25 29 34 34 33 33 31 27 21 18 17 16 17 18 22 21 21 23 24 24 26 28 30 32 34 35 34 34 34 33 33 32 29 27 26 26 27 26 26 27 28 30 33 35 36 37 38 39 39 39 39 39
24 34 45 38 35 39 39 34 30 30 34 39 34 27 31 34 27 19 21 23 13 11 15 14 15 28 38 41 46 42 36 29 23 26 32 33 31 30 32 33 26 19 17 17 17 17 18 20 21 21 23 25 26 27 28 29 31 34 36 37 36 34 34 34 34 33 31 29 27 26 27 27 28 28 29 30 31 33 35 37 38 38 39 39 40 40
25 34 45 39 35 38 36 33 32 29 30 31 26 27 33 37 34 26 23 27 17 8 20 23 23 39 48 50 49 38 34 35 28 27 29 28 28 30 30 26 19 17 17 18 18 18 20 22 21 23 24 26 29 30 30 30 33 37 39 39 37 34 35 35 35 34 33 32 29 28 28 28 29 29 29 30 31 33 35 37 38 39 39 40 40 40
32 35 45 42 35 34 31 29 31 34 35 31 27 30 31 27 29 24 9 9 9 6 18 28 29 36 36 33 30 17 17 26 26 25 25 25 25 24 21 19 18 20 20 19 20 20 22 25 24 26 26 28 32 32 31 32 34 39 41 41 38 35 36 37 36 36 35 33 31 30 29 29 30 30 30 30 31 33 35 36 38 39 39 40 41 40
40 34 38 46 42 36 33 29 29 34 34 34 37 37 29 18 17 20 10 4 7 4 9 24 32 37 41 43 41 33 27 23 20 19 20 20 18 15 17 20 22 24 24 23 23 23 27 29 27 29 30 31 33 34 34 33 36 41 43 42 40 35 36 38 38 38 36 34 32 31 32 32 31 31 31 31 32 33 34 36 37 38 40 41 41 41
44 32 28 40 44 35 33 34 34 35 33 35 39 38 37 28 16 18 19 13 10 6 8 17 21 33 47 46 40 37 31 23 17 15 14 13 15 17 26 32 31 29 27 25 25 29 33 34 32 33 34 34 33 36 36 36 38 41 43 44 41 35 36 40 40 39 38 35 33 32 33 34 33 32 31 31 32 33 34 35 37 38 40 42 42 41
43 37 28 33 38 35 38 42 39 40 38 38 41 41 41 37 25 18 20 26 22 9 6 7 9 35 51 33 23 27 23 19 16 12 13 14 16 25 38 43 39 32 29 28 31 36 39 38 36 37 40 37 33 37 40 39 40 41 42 45 42 37 36 39 42 42 39 36 33 33 34 36 36 34 32 32 32 34 35 36 37 39 41 42 42 42
37 39 35 34 37 42 51 52 48 49 46 43 44 47 47 43 34 19 13 30 34 18 13 10 8 38 55 32 26 31 23 23 23 19 25 27 28 35 41 43 40 35 34 36 38 42 43 40 37 40 44 38 31 36 41 43 43 42 43 44 43 40 37 38 41 43 41 38 35 34 34 36 37 36 34 33 33 34 36 37 38 40 41 42 42 42
36 37 36 36 41 48 52 51 48 49 49 47 45 46 47 46 43 30 15 22 29 21 25 23 13 39 63 48 40 39 29 28 30 31 39 43 43 46 45 46 45 43 44 46 46 44 43 43 44 45 43 35 30 34 41 45 45 43 44 44 43 41 37 37 40 43 44 41 37 36 36 37 38 37 35 34 34 35 37 38 38 40 41 42 42 42
34 33 32 34 39 44 48 47 48 47 43 40 41 42 44 44 45 43 34 32 29 20 24 20 11 36 65 60 52 50 42 39 42 46 51 52 52 51 47 49 50 49 49 48 46 45 44 45 47 46 42 35 32 33 39 45 46 44 45 43 41 40 36 36 38 42 46 44 40 38 38 38 38 38 36 34 34 36 38 39 39 40 41 42 42 42
24 27 26 24 20 23 30 33 39 42 35 30 33 36 40 43 42 40 40 39 29 25 31 22 12 34 60 59 54 53 48 48 51 52 51 50 50 46 46 51 54 53 51 46 45 48 49 49 47 44 41 38 34 32 36 43 45 46 44 40 39 38 35 35 37 40 45 45 43 40 39 39 39 38 37 35 35 37 38 40 41 41 42 42 42 42
20 22 24 20 13 10 13 15 21 25 22 21 26 29 32 36 36 37 40 33 22 29 42 34 25 43 60 59 57 58 56 55 56 55 53 52 51 49 52 56 57 56 52 49 50 50 50 50 48 45 42 38 35 33 34 40 45 47 44 39 38 37 35 35 35 38 42 45 44 42 40 40 39 38 37 36 36 37 39 41 41 42 42 42 42 43
26 24 26 28 24 19 21 26 30 32 31 32 35 38 36 31 31 36 38 33 29 34 42 44 43 51 57 61 65 68 67 66 65 64 62 59 57 56 57 56 56 55 53 52 53 52 51 51 49 46 42 40 38 34 33 37 42 44 42 39 37 36 36 36 35 36 39 41 42 41 40 39 39 38 37 37 37 39 40 42 42 42 43 43 43 43
35 33 34 36 36 35 38 44 46 47 49 50 50 52 50 43 39 38 38 40 41 35 34 43 49 50 55 62 68 71 72 71 69 66 64 61 60 59 56 53 54 54 53 53 54 54 52 50 47 45 42 40 37 35 35 36 37 39 39 38 37 37 38 38 37 38 39 40 41 41 40 39 39 38 38 38 39 39 41 42 42 43 44 44 43 43
42 43 45 48 50 50 49 48 49 50 54 56 56 57 58 57 54 49 47 52 52 44 40 45 51 56 62 64 65 70 74 72 69 68 67 67 65 62 58 57 57 56 55 56 56 54 50 47 44 42 39 37 36 35 35 36 37 37 37 38 38 39 39 39 39 40 41 42 43 42 41 41 40 39 39 39 39 40 41 42 43 44 45 45 44 43
45 48 49 50 54 53 49 48 51 54 56 59 60 58 57 58 59 58 58 60 58 55 57 60 61 66 69 68 70 73 73 72 72 70 67 64 63 63 63 61 60 59 59 58 53 48 46 44 40 37 36 35 34 35 35 36 36 36 36 37 37 37 37 37 38 39 39 39 39 39 39 39 39 39 38 38 39 40 41 42 43 44 45 45 45 44
44 47 46 44 46 48 49 51 53 55 58 59 59 58 56 56 59 61 62 61 58 59 62 63 62 66 70 71 73 73 71 70 68 61 56 54 53 55 60 62 61 60 58 53 46 41 41 39 35 34 34 34 34 34 35 34 33 33 33 33 32 31 31 30 30 30 29 29 30 32 32 33 34 35 36 37 38 39 41 42 43 44 45 45 45 44
45 45 43 39 38 41 47 49 51 55 58 59 59 57 57 59 63 64 63 62 62 63 62 57 56 61 66 67 68 69 66 63 61 56 55 54 52 54 59 62 59 55 49 43 39 38 36 33 31 31 32 33 34 33 31 31 31 30 29 27 26 24 23 22 21 20 19 21 23 25 26 28 30 31 33 34 36 38 40 41 43 44 45 46 45 45
47 44 43 39 34 38 45 48 52 50 39 40 51 57 59 63 65 65 64 62 62 63 62 59 59 60 58 57 61 63 60 60 61 59 59 60 58 57 60 60 55 47 38 34 35 34 31 29 30 30 31 33 33 30 29 29 28 27 25 23 21 20 19 18 17 17 19 21 23 25 27 29 30 31 32 34 35 37 39 41 43 44 45 46 46 45
49 47 47 42 34 35 41 46 45 31 18 29 49 56 54 56 58 61 64 63 61 62 63 63 64 63 59 58 61 61 61 63 61 57 59 63 63 62 61 57 48 38 32 30 31 30 28 29 29 29 30 32 31 29 27 26 25 23 22 22 21 20 19 18 19 21 24 25 26 28 29 30 31 31 33 35 36 38 40 42 43 44 45 46 46 45
52 49 46 43 40 39 40 38 25 12 18 40 52 49 45 47 51 58 63 62 60 60 63 66 66 65 64 64 63 62 64 64 59 59 63 66 66 65 62 54 41 32 29 28 26 25 26 27 28 29 31 31 31 30 27 25 23 21 22 23 23 22 22 22 25 27 27 27 28 29 30 30 29 30 32 34 36 38 40 42 43 44 45 45 45 45
55 51 46 44 41 34 28 23 17 16 26 35 33 32 38 44 48 55 61 65 66 65 67 69 69 68 68 67 66 66 67 65 63 66 66 63 60 59 59 55 41 30 28 26 24 25 28 30 31 32 33 32 32 30 28 26 23 22 22 22 22 24 25 27 28 28 28 29 31 32 32 31 30 30 31 33 36 37 39 41 43 44 45 45 45 45
60 57 52 46 40 33 27 27 32 35 34 31 32 38 48 53 55 58 65 69 67 63 64 64 64 65 65 66 66 65 63 63 66 66 62 55 50 49 54 57 47 37 31 26 24 27 32 35 34 32 31 32 31 30 29 26 24 23 22 22 23 24 26 28 28 28 29 31 33 33 33 33 31 31 31 32 35 37 39 41 43 44 45 45 46 46
56 58 56 50 44 42 36 26 21 20 22 32 43 50 53 56 56 60 68 69 59 52 56 59 61 62 63 64 64 61 58 58 62 61 52 45 43 43 45 47 42 40 39 33 28 30 35 37 34 30 29 31 30 29 27 25 24 24 23 24 24 25 27 28 28 28 29 30 30 32 33 33 33 32 32 33 34 36 39 41 43 45 45 47 47 46
49 57 61 57 50 45 36 20 9 13 23 35 45 50 51 55 58 59 58 51 45 48 54 57 59 60 60 59 56 54 54 56 57 53 44 39 41 40 36 35 33 34 38 36 32 32 34 35 32 29 29 30 29 28 27 26 26 26 25 25 25 27 29 29 28 29 30 29 28 29 30 32 33 34 33 34 35 37 40 42 44 46 47 48 48 45
47 55 59 59 55 52 45 30 21 28 36 40 46 53 57 58 54 44 30 23 33 49 56 57 57 53 50 48 48 49 53 56 56 52 46 44 44 38 33 33 31 31 35 34 32 32 34 33 30 28 27 27 28 29 30 30 30 30 30 29 29 31 30 29 30 32 34 33 31 30 31 32 33 34 34 35 37 39 41 43 45 47 48 48 46 43
44 52 57 61 61 59 53 40 33 39 48 50 52 55 57 52 41 31 28 34 45 52 50 46 44 42 42 44 45 47 49 48 47 47 46 46 45 39 35 34 34 35 37 36 33 32 33 32 30 28 26 26 28 31 32 32 30 30 32 33 34 36 34 34 36 38 38 38 37 36 36 36 35 35 35 36 38 40 42 45 46 47 48 47 44 40
34 36 41 48 52 53 51 43 36 38 42 47 51 53 52 45 33 28 34 39 38 35 33 30 31 36 41 43 43 46 47 45 43 43 42 43 43 39 35 35 37 38 38 36 33 31 31 32 30 28 27 29 31 32 33 33 32 31 33 36 37 38 38 39 42 42 41 40 39 39 39 39 38 37 37 37 39 41 43 46 47 48 47 45 42 40
30 28 28 33 37 40 41 33 22 18 19 22 31 37 38 34 30 32 36 36 34 33 31 30 33 35 37 41 44 46 47 47 44 42 40 42 43 40 36 34 35 36 35 35 33 30 30 32 30 27 27 28 31 31 31 31 30 30 31 33 33 33 34 36 37 37 36 36 37 40 40 39 39 39 39 39 40 42 44 46 47 48 46 44 42 40
24 24 23 23 22 19 18 16 10 8 8 9 13 16 20 23 26 32 35 35 36 33 27 25 28 29 30 35 39 42 44 45 43 41 38 37 37 37 36 35 34 35 36 35 33 31 31 33 33 30 28 28 30 31 30 29 28 27 27 28 30 32 35 36 36 37 38 38 40 40 39 38 40 41 41 40 41 42 44 45 47 47 46 44 42 39
18 20 23 21 20 18 18 18 16 16 16 11 11 10 18 22 24 26 26 27 27 26 23 22 22 22 23 26 30 35 39 41 41 40 38 35 34 34 33 34 34 34 34 35 34 33 33 34 36 36 35 33 31 31 32 32 31 31 30 31 34 38 40 40 40 41 42 42 42 41 39 39 41 43 43 41 41 43 44 45 47 47 45 43 40 37
30 33 34 31 32 33 33 33 30 30 30 23 18 22 33 36 37 34 30 29 29 29 30 31 31 28 26 26 28 30 33 37 40 41 39 38 37 35 34 34 34 34 34 34 35 36 36 37 39 40 40 38 35 34 35 35 37 38 38 39 43 45 44 43 43 43 44 44 43 42 41 41 42 44 44 42 42 43 45 46 46 46 44 41 38 37
41 42 41 40 41 40 40 42 41 41 42 40 40 44 47 45 44 44 42 44 47 47 46 45 46 45 42 41 41 38 34 34 37 41 42 42 42 42 42 40 39 39 39 39 39 40 40 40 41 42 43 41 39 38 39 41 44 47 49 51 53 52 49 47 46 46 46 45 44 43 42 42 43 44 44 43 43 44 45 45 46 46 43 40 38 38
47 49 51 53 52 49 49 54 56 54 54 53 51 51 48 46 48 52 54 56 59 61 60 58 58 60 61 60 58 55 51 45 41 41 43 44 44 45 46 46 45 44 44 44 44 44 44 44 44 44 46 45 44 44 46 49 52 56 59 60 59 55 52 51 49 48 47 46 45 44 42 41 42 43 42 43 44 45 44 44 45 44 41 38 38 38
44 50 55 55 55 57 60 59 54 51 55 57 54 51 51 54 57 59 58 59 63 66 67 67 66 65 66 67 67 66 64 61 57 55 53 51 49 48 47 47 47 47 47 47 48 48 49 49 49 50 51 52 52 54 56 58 60 62 62 61 58 55 54 52 50 49 48 47 46 44 42 41 41 41 41 42 44 44 44 43 43 41 39 39 39 39
37 42 46 44 45 50 55 52 46 48 57 63 62 58 56 55 54 53 54 59 64 65 63 62 62 60 58 59 60 61 62 63 63 62 61 61 61 58 56 57 57 56 55 54 54 55 55 56 58 59 60 60 61 63 65 66 66 65 62 60 58 56 53 51 48 47 47 46 44 43 41 41 40 40 40 41 42 43 43 43 44 42 41 41 41 40
35 37 39 38 41 47 50 48 47 50 56 59 59 57 54 50 47 46 49 54 58 56 52 50 52 55 55 52 49 49 52 56 59 59 60 63 65 65 66 67 67 66 65 64 63 64 64 64 66 67 67 68 68 69 70 69 68 66 64 62 59 56 52 50 47 46 45 44 43 42 41 41 40 40 40 41 43 43 43 44 44 43 43 43 42 40
Wind_Direction
269 267 263 261 262 265 272 278 281 287 289 286 283 278 275 275 277 284 287 286 287 279 277 280 279 281 287 289 291 290 288 285 284 287 290 294 297 296 295 293 292 294 295 288 280 282 282 280 281 283 282 279 276 274 273 272 270 267 264 264 267 273 280 284 288 290 289 286 283 279 276 272 268 266 265 265 265 266 267 267 268 269 270 271 272 273
268 265 264 264 267 274 278 279 278 277 278 278 275 273 273 275 280 287 289 288 289 281 279 283 279 279 286 289 290 290 287 285 286 288 290 293 294 294 295 295 297 297 291 284 281 284 284 283 284 285 282 277 274 272 271 269 264 261 260 263 269 276 283 288 291 291 289 286 283 278 274 270 266 265 265 264 264 265 266 267 268 268 269 270 271 272
264 263 266 269 275 279 279 277 273 270 269 267 266 268 270 276 283 287 288 288 288 282 281 284 279 278 285 288 288 287 286 287 288 288 289 291 291 294 298 300 300 295 289 286 285 286 286 285 285 285 282 278 274 271 269 265 259 258 260 264 272 280 286 292 294 293 290 286 282 278 274 270 267 266 266 265 265 266 266 267 267 268 269 270 270 271
262 264 271 275 276 277 277 276 274 274 273 270 268 267 271 278 282 283 286 288 286 283 281 284 281 280 284 286 285 286 287 287 286 285 286 290 294 299 303 301 298 292 289 288 286 286 286 286 285 284 282 278 274 270 266 262 258 258 261 267 275 282 287 293 297 297 292 287 283 280 277 274 271 270 269 267 266 267 267 267 268 269 269 269 269 270
265 268 273 275 274 274 275 275 273 274 277 276 272 270 274 280 280 279 283 284 282 280 279 284 285 283 284 286 287 288 289 287 285 285 289 295 299 304 304 300 296 289 285 285 286 287 285 283 282 282 281 279 274 270 264 259 257 257 263 272 278 283 287 294 300 301 296 290 286 283 280 278 276 274 272 270 269 268 267 267 268 268 268 268 269 270
268 271 271 272 273 273 273 273 271 272 277 277 274 273 279 283 282 281 281 277 275 277 281 286 288 286 286 286 287 289 288 287 287 290 294 299 303 304 301 296 292 289 287 287 285 282 280 278 279 282 283 280 272 266 262 258 257 259 268 280 283 283 288 295 300 302 298 294 289 285 282 280 278 275 273 272 269 267 266 266 266 267 268 268 269 270
266 269 269 270 272 272 271 271 272 273 274 274 275 278 280 282 281 279 277 273 268 274 281 274 265 288 287 282 282 283 283 284 286 290 294 299 302 302 298 292 292 292 288 285 280 275 277 279 280 284 283 278 270 261 259 256 254 260 275 284 285 285 292 298 301 301 299 295 291 288 283 280 277 275 274 271 268 267 266 266 266 267 267 267 268 269
263 264 266 270 271 270 269 270 274 275 270 270 276 279 277 278 278 276 274 270 268 274 276 264 258 280 283 280 281 280 280 283 284 288 293 297 300 299 298 295 292 287 280 285 283 277 282 285 282 282 279 273 266 261 259 254 250 264 283 287 285 291 298 302 303 302 299 296 293 289 284 279 277 276 273 270 267 267 267 267 267 266 266 266 267 269
264 264 266 269 269 268 269 273 276 274 269 270 275 276 273 274 274 273 272 269 275 281 275 263 257 260 274 278 282 282 277 278 282 287 292 293 296 299 303 300 279 246 263 287 293 286 285 286 279 274 275 270 267 266 262 252 249 269 290 291 290 297 303 305 305 303 300 298 295 290 285 281 278 275 272 269 268 268 267 267 266 265 265 266 267 268
263 264 265 264 264 268 272 274 275 272 269 270 273 272 271 272 272 272 273 274 280 278 261 251 243 229 274 278 275 268 268 273 281 285 289 291 295 298 304 304 287 263 264 276 287 287 283 282 278 270 272 272 271 270 262 252 253 276 295 295 294 299 304 307 307 304 302 298 296 293 287 282 278 275 272 270 269 268 267 266 265 265 266 266 267 268
264 263 262 260 264 269 271 271 271 270 267 268 270 270 271 274 275 273 273 275 282 271 261 258 249 230 267 282 270 257 268 276 279 276 281 291 295 297 302 305 301 296 288 275 269 273 274 275 276 273 274 275 273 273 269 260 261 281 296 297 296 301 305 308 308 305 303 299 297 294 288 283 278 275 273 272 270 269 268 266 266 266 266 266 267 267
263 262 261 263 266 267 268 268 268 267 266 267 268 267 272 278 277 274 268 261 238 266 268 270 257 232 234 266 276 279 281 276 270 264 274 290 294 296 302 304 304 303 298 284 264 261 265 269 277 282 279 275 275 277 276 270 271 284 296 298 299 302 305 308 309 305 302 300 298 296 291 286 280 276 274 273 272 269 268 267 266 266 266 266 267 268
262 264 267 268 268 267 266 264 263 263 263 264 261 258 260 273 276 260 222 212 219 258 271 278 264 234 239 256 264 271 270 261 266 258 252 283 296 296 300 302 302 302 295 286 275 262 257 271 291 291 280 275 277 278 277 274 275 286 296 300 302 303 304 307 308 304 301 300 299 297 294 289 282 278 276 273 272 270 268 267 266 266 266 266 267 268
265 269 268 263 264 265 262 258 259 264 264 262 258 250 235 211 262 249 233 243 241 259 274 271 253 240 254 264 263 263 265 266 271 256 232 267 294 295 297 300 299 297 289 281 279 262 248 274 295 291 279 275 275 276 277 276 276 285 296 302 303 304 303 306 307 305 302 300 298 295 293 289 285 282 279 275 273 271 269 267 267 266 266 266 266 267
262 269 266 261 263 266 264 263 266 270 268 266 265 257 242 232 225 231 242 243 254 279 281 250 217 241 264 271 273 276 278 271 265 260 257 272 285 290 294 297 296 289 278 275 277 260 250 273 288 284 276 274 274 274 276 276 275 283 297 303 304 303 302 304 306 306 305 302 297 294 290 289 288 286 282 278 274 272 270 268 267 266 266 266 266 267
251 263 270 269 267 269 269 268 268 263 261 264 261 246 243 245 242 243 249 256 278 310 280 240 232 262 269 273 277 278 279 270 252 258 271 276 279 287 293 293 287 274 268 273 271 259 263 277 281 279 277 274 272 272 275 275 273 283 297 304 305 302 299 302 305 306 306 304 299 295 291 290 289 288 285 281 277 273 271 269 268 267 266 266 266 267
251 262 273 273 269 269 269 267 264 256 253 258 249 239 251 256 248 241 251 265 277 294 274 265 262 272 278 282 281 274 269 266 252 252 269 277 280 287 290 285 273 266 271 273 263 260 276 283 277 277 280 277 272 270 274 276 273 282 297 305 305 298 293 297 304 306 305 304 301 296 293 291 290 288 286 282 278 274 271 269 267 266 266 266 267 267
257 262 270 272 270 268 266 266 263 253 246 245 248 256 261 256 243 237 248 284 268 255 273 273 273 279 281 280 283 284 273 265 251 251 271 281 278 275 274 274 274 275 276 271 262 267 285 288 279 278 284 284 276 270 273 274 273 282 295 304 305 297 289 291 299 304 304 303 301 296 293 292 290 288 284 281 279 275 271 269 268 267 266 266 266 267
258 257 263 266 268 269 268 264 252 244 242 244 253 259 253 240 229 223 212 241 251 236 272 275 278 278 269 266 276 285 283 270 252 257 276 274 259 254 269 283 284 279 277 273 267 274 290 292 282 280 288 291 281 270 269 271 273 281 292 300 304 297 286 284 290 300 303 301 299 296 292 291 288 286 283 280 279 277 274 271 269 267 266 266 266 266
256 250 254 259 261 266 265 256 245 243 245 244 248 249 245 244 232 213 210 215 234 236 256 274 281 276 271 273 279 284 283 274 259 261 266 243 234 262 285 293 291 283 277 273 273 283 293 295 287 283 290 295 284 269 266 269 274 280 286 294 301 298 287 280 282 293 300 299 296 293 290 290 288 285 281 278 277 276 274 271 269 267 266 265 266 266
252 245 247 252 255 259 258 255 256 258 257 248 242 243 244 242 233 230 229 226 229 230 243 259 267 269 273 281 288 286 283 275 267 262 257 239 246 276 290 295 295 286 274 272 281 290 296 296 292 289 295 299 284 264 261 268 277 281 282 289 298 297 289 280 278 285 294 296 292 288 287 288 287 284 281 277 275 274 273 270 268 266 265 265 265 265
246 243 245 246 249 254 257 261 266 268 268 264 256 254 256 249 237 237 241 234 235 231 237 242 249 265 269 274 284 285 281 276 274 271 275 274 272 280 289 293 292 284 278 281 288 293 296 294 291 292 298 300 283 261 258 266 276 282 285 290 295 294 289 282 276 278 286 292 289 285 284 283 283 283 281 277 274 272 271 270 268 266 265 265 264 264
256 248 241 242 250 256 262 268 271 269 268 265 258 255 258 252 239 233 235 243 243 236 242 248 248 261 265 267 275 281 281 279 276 274 279 282 280 283 287 289 288 285 285 289 291 292 294 294 295 297 299 299 286 266 260 266 275 283 288 292 293 292 288 281 275 273 279 287 288 284 281 280 280 281 280 277 274 272 271 270 268 267 266 265 264 264
256 245 237 246 257 258 261 266 266 266 264 254 249 248 249 248 242 240 244 252 254 243 241 247 244 259 266 269 272 275 274 273 274 276 279 281 282 283 285 286 287 288 289 289 289 291 293 293 296 299 299 300 294 275 265 267 272 280 289 291 289 289 285 278 273 270 273 281 285 283 280 279 279 279 280 278 274 271 271 270 270 269 268 266 265 266
251 246 244 249 258 256 255 258 258 260 261 253 252 252 250 249 249 248 249 252 254 248 245 249 253 260 266 271 274 274 273 272 275 277 278 280 280 280 282 283 286 288 288 287 288 293 295 295 296 298 299 299 296 284 273 271 272 278 287 289 284 284 282 275 271 268 270 275 281 281 279 277 277 278 279 277 273 271 270 269 269 269 269 268 267 267
255 254 247 242 244 247 246 251 257 264 275 278 271 269 265 260 255 252 251 249 250 250 247 248 257 262 265 269 272 272 272 272 274 276 276 277 278 278 280 283 285 287 286 286 290 292 294 296 299 300 300 299 297 291 280 273 272 276 282 284 281 279 276 273 270 267 267 271 276 278 276 275 275 276 277 276 273 270 268 268 268 269 270 269 268 268
253 248 240 237 240 248 251 255 262 268 274 276 274 274 274 273 270 261 253 248 252 257 252 250 257 263 264 268 270 272 273 273 274 276 276 276 276 278 280 283 285 285 284 287 290 291 294 297 299 299 299 298 298 295 286 277 273 275 278 279 277 275 273 272 269 267 267 269 272 273 272 272 272 273 274 274 272 269 268 267 268 269 269 268 268 268
254 245 242 240 240 246 252 256 262 265 264 264 265 266 265 267 269 264 258 256 257 258 256 256 260 263 264 266 270 273 276 277 277 278 278 278 277 278 281 282 282 282 283 285 287 291 296 298 298 298 297 297 295 292 287 282 277 277 277 276 274 272 271 270 269 269 270 270 271 270 269 269 269 270 270 270 269 268 268 267 267 267 268 268 268 268
259 252 254 252 249 251 255 260 263 262 262 263 262 262 264 264 262 260 259 260 257 254 257 261 262 263 264 265 268 272 275 277 278 279 278 278 278 279 279 278 279 279 280 282 287 293 296 296 296 296 295 294 293 290 286 281 277 275 274 274 274 273 273 274 274 275 274 274 274 272 270 269 269 270 270 268 268 268 267 267 266 266 267 267 267 267
263 256 259 259 254 255 262 266 264 259 259 260 258 258 261 263 262 260 259 259 258 257 259 262 261 262 265 268 268 271 274 276 278 281 281 281 281 281 279 277 278 279 279 283 290 293 293 293 294 293 292 291 290 287 283 280 278 277 276 277 279 279 280 280 279 279 280 280 279 277 275 275 275 274 272 270 268 267 266 266 265 265 266 266 266 266
264 258 262 262 256 258 263 264 261 256 253 254 256 258 260 260 260 257 255 255 255 255 258 260 259 261 267 270 271 273 277 279 281 284 286 288 287 284 282 279 279 281 283 288 291 289 289 291 290 288 288 287 285 282 281 282 281 280 280 281 282 283 282 281 281 283 284 284 283 281 280 281 280 278 275 272 269 267 266 266 265 265 264 264 265 265
263 257 259 258 251 253 260 262 260 256 253 249 251 255 256 254 254 253 253 253 253 253 256 256 255 260 270 276 276 277 280 281 281 284 290 293 291 286 283 281 282 286 287 286 285 285 288 289 285 283 281 281 282 282 282 282 280 279 280 280 279 279 280 282 285 287 287 287 286 286 287 286 284 282 279 276 273 270 268 267 265 264 263 263 263 263
262 257 255 253 249 251 260 265 262 258 252 241 244 253 257 255 254 253 253 255 256 255 254 253 257 266 276 279 275 275 281 283 282 286 291 291 289 286 283 283 286 288 283 278 282 289 292 288 280 277 278 281 283 282 279 277 277 278 278 275 275 279 282 284 286 288 290 290 290 290 289 287 285 283 281 277 274 271 268 266 264 263 262 261 261 262
262 258 255 253 250 254 262 264 260 253 236 240 254 263 265 262 259 255 254 259 264 263 259 260 265 270 273 272 269 273 282 284 284 287 287 284 283 283 281 284 288 284 275 278 288 294 293 287 281 278 280 284 283 279 277 277 278 279 275 273 276 280 282 283 286 290 292 292 291 291 290 289 287 285 281 277 273 270 268 266 264 263 262 261 261 261
258 256 254 251 248 254 259 257 254 237 238 254 261 264 265 267 267 263 261 263 265 265 266 266 267 268 268 267 268 272 279 281 281 281 280 279 280 281 280 283 284 275 274 284 291 291 286 282 282 283 283 282 279 277 278 279 279 276 272 274 278 279 281 285 288 291 293 293 294 295 294 295 292 287 283 278 275 272 271 268 266 265 263 262 261 260
255 254 252 248 246 250 248 236 235 253 260 262 262 261 264 269 268 262 260 261 263 265 267 268 269 270 269 268 270 272 276 278 276 276 277 278 279 280 280 281 277 268 273 287 289 286 283 280 281 282 281 278 276 277 279 279 275 272 271 274 277 279 282 286 289 293 295 295 295 296 297 297 294 288 284 280 277 275 273 271 268 265 263 261 259 258
255 251 249 247 244 244 241 237 245 257 262 257 255 262 268 270 272 268 262 264 269 271 271 272 273 273 272 272 273 274 275 275 272 273 277 278 277 278 279 280 277 266 266 278 284 282 279 277 278 279 276 275 275 277 281 278 271 269 270 271 275 280 283 287 291 296 297 296 296 297 297 296 294 290 286 282 280 278 275 272 269 265 262 260 257 255
256 250 247 245 241 240 243 245 247 252 252 248 253 263 270 275 280 278 267 264 267 268 270 273 274 275 276 276 275 276 277 272 269 274 279 279 282 287 288 288 283 268 261 266 274 277 274 270 271 273 273 274 276 277 277 274 269 268 269 272 277 282 284 287 292 295 295 296 296 296 295 295 294 293 290 286 283 280 277 274 269 265 261 257 255 253
254 250 245 242 240 239 239 241 238 244 253 256 259 266 273 278 280 275 268 263 261 263 268 274 276 278 278 276 278 282 277 268 269 279 287 289 294 297 293 290 286 274 269 267 264 269 272 266 262 266 270 273 276 275 271 269 268 269 270 273 277 281 283 285 287 288 289 292 295 296 295 294 293 292 290 288 284 282 279 274 269 264 259 256 254 253
244 241 238 237 237 237 238 241 246 249 255 261 264 268 276 279 275 266 259 263 268 270 275 278 278 277 277 280 287 287 278 271 276 288 293 293 295 294 286 284 285 285 287 279 262 263 272 268 259 261 266 269 272 271 269 269 270 270 270 271 271 271 274 277 279 280 282 285 288 291 292 294 294 293 291 287 284 281 277 272 267 262 258 255 253 252
244 237 233 233 235 235 236 241 248 252 257 260 262 267 273 272 262 250 253 269 277 278 279 280 278 276 277 282 284 281 277 277 281 285 287 286 287 285 282 286 286 285 290 286 270 267 274 269 258 256 262 265 265 265 265 265 266 268 269 268 267 268 272 275 276 277 279 280 281 283 287 290 293 294 292 289 286 282 277 271 265 260 256 254 252 249
250 241 233 233 236 237 237 241 248 254 258 258 258 263 265 261 254 253 262 270 275 276 273 268 268 271 272 271 269 268 270 272 272 273 274 274 274 275 278 283 283 281 284 283 274 272 275 270 260 256 261 267 268 267 265 264 264 266 269 270 271 275 278 277 275 274 276 277 279 281 282 284 287 290 292 291 288 284 279 273 266 260 257 254 250 246
258 255 248 242 241 241 241 243 247 257 260 251 250 255 254 252 258 265 264 265 267 270 271 267 263 264 264 262 262 264 265 267 268 268 267 266 266 266 267 269 269 268 268 266 264 266 269 267 261 257 259 266 270 271 268 265 267 270 273 276 279 281 281 279 276 275 277 280 283 283 282 282 285 287 289 289 287 283 279 274 267 262 258 253 248 244
264 265 269 258 247 244 245 241 231 248 254 213 214 240 246 249 266 272 266 266 268 267 269 268 260 257 258 259 259 260 261 263 263 263 263 264 262 260 258 256 255 254 253 252 253 257 261 261 259 258 259 262 266 268 267 267 269 271 272 276 281 281 281 281 281 280 281 284 285 283 281 282 284 284 285 286 285 281 278 274 269 262 256 250 246 243
264 284 304 292 274 278 279 264 255 268 272 231 203 257 278 276 285 290 280 274 271 264 266 274 269 261 260 262 260 256 256 258 259 259 260 259 256 253 250 247 247 248 250 250 252 256 260 261 260 260 260 259 261 265 268 269 271 273 275 280 284 284 283 282 281 281 282 283 283 281 280 280 280 280 281 283 284 281 278 274 268 261 254 249 245 241
271 287 299 296 291 294 287 274 268 273 273 256 243 276 297 300 302 303 295 284 281 279 282 288 289 283 279 279 278 266 255 254 256 257 257 255 253 249 246 245 245 247 250 254 257 261 264 264 263 265 265 263 263 266 270 272 274 279 284 289 292 290 286 282 280 279 280 280 279 277 276 275 276 277 278 279 281 279 276 271 265 258 252 247 242 238
280 284 288 289 293 296 289 280 278 279 278 275 273 284 298 302 300 299 297 294 293 292 289 288 291 292 290 289 290 286 274 263 260 258 256 254 254 252 250 251 252 253 257 261 264 266 268 268 267 267 266 263 263 265 270 273 278 283 288 291 293 291 285 281 278 278 277 276 274 272 272 272 272 274 275 276 277 277 274 269 263 257 252 245 239 235
285 285 287 289 291 291 289 288 290 290 288 287 288 293 300 301 299 300 301 301 299 296 292 291 294 296 295 293 293 294 291 285 278 272 267 263 260 258 257 257 259 260 262 264 266 268 269 269 269 268 266 264 265 269 273 276 280 285 289 290 289 286 283 280 278 275 273 272 270 269 269 270 271 272 273 274 274 275 273 268 262 256 249 241 235 232
289 286 288 291 292 291 292 293 296 298 293 288 291 299 303 302 303 305 305 303 301 298 296 297 298 300 299 297 296 297 297 293 289 288 285 279 274 269 267 267 269 270 269 268 269 269 269 269 271 273 272 270 272 275 279 281 284 287 288 288 286 283 280 278 274 271 269 268 267 267 268 269 270 270 270 271 271 271 268 262 255 249 241 234 231 229
294 290 291 295 294 293 293 294 299 303 297 292 294 301 305 305 305 305 303 301 300 300 300 301 300 300 300 299 298 299 298 296 294 293 292 289 285 282 279 278 278 278 276 275 274 273 272 272 274 276 276 275 277 280 282 285 286 287 286 285 283 281 278 274 271 269 267 266 266 266 267 269 269 267 267 268 268 267 263 256 250 242 235 230 227 225
290 289 292 294 291 291 294 296 299 299 297 296 298 301 303 304 303 302 301 300 299 300 301 301 299 298 298 297 296 296 295 294 294 293 292 291 290 288 287 286 284 283 282 280 279 278 276 275 276 279 280 281 282 284 284 285 285 284 283 282 281 278 274 271 268 268 268 268 267 267 268 269 268 265 264 264 264 262 258 253 248 241 233 227 224 222
Height
3134 3129 3127 3128 3128 3129 3131 3130 3128 3127 3128 3126 3125 3123 3121 3121 3117 3116 3117 3116 3116 3112 3108 3108 3105 3103 3102 3102 3104 3105 3105 3104 3102 3101 3100 3100 3100 3099 3099 3098 3098 3096 3095 3095 3094 3094 3093 3092 3091 3091 3091 3091 3090 3090 3090 3091 3091 3092 3092 3093 3093 3094 3093 3093 3093 3092 3091 3091 3090 3090 3090 3089 3089 3088 3088 3088 3088 3087 3087 3087 3088 3087 3087 3087 3088 3088
3128 3121 3120 3124 3126 3129 3129 3128 3127 3126 3125 3123 3122 3120 3118 3116 3112 3112 3114 3112 3111 3107 3102 3103 3101 3098 3097 3097 3099 3099 3098 3097 3098 3099 3097 3097 3096 3095 3094 3093 3093 3092 3090 3090 3090 3091 3090 3088 3088 3088 3087 3087 3087 3087 3087 3087 3088 3088 3089 3090 3090 3090 3090 3090 3090 3089 3087 3087 3086 3085 3085 3085 3084 3084 3083 3083 3083 3083 3083 3083 3083 3083 3083 3083 3083 3083
3118 3113 3116 3123 3125 3126 3125 3124 3124 3123 3122 3121 3119 3117 3114 3112 3109 3107 3109 3109 3107 3102 3098 3098 3095 3091 3093 3093 3093 3093 3091 3091 3093 3095 3094 3093 3092 3091 3091 3090 3089 3087 3086 3085 3086 3087 3086 3085 3084 3084 3083 3083 3083 3083 3083 3084 3084 3085 3086 3087 3087 3087 3086 3086 3086 3085 3084 3083 3082 3081 3081 3080 3079 3079 3079 3079 3079 3079 3078 3079 3079 3078 3079 3079 3079 3079
3110 3108 3114 3121 3123 3121 3119 3120 3120 3119 3117 3115 3115 3114 3110 3110 3109 3104 3104 3105 3103 3099 3095 3094 3089 3084 3087 3087 3086 3088 3086 3086 3088 3089 3089 3089 3088 3088 3087 3086 3085 3083 3082 3081 3082 3083 3082 3081 3080 3080 3079 3079 3079 3079 3079 3080 3080 3081 3083 3083 3084 3083 3083 3083 3082 3082 3081 3080 3078 3077 3077 3075 3075 3075 3075 3074 3074 3074 3074 3074 3074 3074 3075 3075 3075 3075
3105 3108 3114 3116 3117 3117 3115 3115 3116 3115 3112 3108 3110 3110 3106 3106 3107 3103 3102 3102 3099 3096 3093 3092 3082 3074 3079 3081 3078 3082 3082 3080 3082 3083 3084 3085 3084 3084 3083 3082 3081 3079 3078 3077 3078 3079 3078 3077 3076 3075 3076 3075 3076 3076 3076 3077 3077 3078 3079 3080 3080 3080 3080 3079 3079 3078 3077 3075 3074 3073 3072 3071 3071 3071 3070 3070 3070 3070 3070 3070 3070 3070 3070 3071 3071 3071
3101 3107 3111 3111 3112 3112 3111 3110 3112 3113 3107 3103 3103 3105 3103 3102 3102 3101 3101 3099 3095 3091 3089 3091 3081 3065 3069 3076 3072 3074 3076 3074 3076 3077 3077 3080 3080 3080 3079 3078 3078 3076 3074 3074 3074 3075 3074 3073 3073 3072 3072 3072 3072 3072 3073 3073 3074 3075 3076 3076 3077 3077 3076 3075 3074 3073 3072 3071 3069 3068 3068 3067 3066 3066 3066 3066 3066 3066 3066 3066 3065 3065 3066 3066 3066 3066
3099 3104 3106 3107 3107 3107 3107 3105 3108 3110 3105 3098 3097 3100 3101 3099 3099 3097 3098 3096 3092 3088 3086 3089 3085 3067 3058 3065 3069 3069 3070 3069 3071 3071 3071 3074 3075 3075 3075 3074 3075 3073 3071 3071 3071 3071 3071 3070 3069 3069 3069 3069 3069 3069 3069 3070 3071 3072 3073 3073 3073 3073 3072 3071 3069 3068 3067 3066 3065 3064 3063 3063 3061 3061 3061 3062 3061 3061 3062 3061 3061 3061 3061 3062 3061 3061
3097 3100 3100 3102 3103 3102 3102 3101 3103 3106 3102 3094 3093 3097 3096 3096 3096 3094 3094 3093 3088 3086 3083 3083 3089 3077 3050 3048 3061 3064 3065 3066 3065 3066 3067 3069 3071 3071 3071 3071 3070 3070 3069 3068 3068 3067 3067 3066 3066 3066 3065 3066 3066 3066 3067 3067 3068 3069 3069 3069 3069 3068 3067 3065 3064 3063 3062 3061 3060 3059 3059 3058 3057 3057 3057 3057 3057 3056 3057 3057 3056 3057 3057 3057 3057 3056
3095 3097 3097 3098 3098 3097 3096 3097 3099 3101 3099 3092 3091 3093 3092 3094 3093 3091 3091 3089 3086 3083 3077 3075 3086 3081 3048 3038 3054 3057 3058 3061 3059 3062 3064 3064 3067 3066 3066 3066 3065 3066 3066 3066 3065 3063 3063 3063 3062 3062 3062 3062 3062 3063 3064 3064 3065 3065 3065 3064 3064 3063 3061 3060 3059 3058 3057 3056 3055 3055 3054 3053 3053 3052 3052 3052 3052 3052 3053 3053 3052 3052 3052 3052 3052 3052
3093 3092 3092 3093 3093 3093 3092 3094 3096 3096 3094 3091 3091 3089 3089 3091 3089 3090 3087 3085 3088 3079 3069 3071 3079 3078 3048 3031 3047 3051 3049 3054 3054 3058 3060 3061 3063 3062 3062 3062 3061 3062 3062 3062 3062 3060 3060 3059 3059 3059 3058 3059 3059 3060 3060 3060 3061 3060 3060 3060 3058 3058 3056 3055 3054 3053 3052 3051 3050 3050 3049 3048 3048 3047 3047 3047 3048 3048 3048 3048 3048 3048 3048 3047 3048 3047
3088 3086 3087 3087 3088 3089 3089 3091 3091 3091 3090 3088 3089 3087 3087 3088 3085 3087 3083 3083 3087 3068 3058 3066 3071 3074 3051 3025 3036 3044 3041 3046 3049 3052 3055 3057 3059 3058 3059 3059 3057 3057 3056 3057 3058 3056 3056 3056 3055 3055 3055 3056 3056 3056 3057 3056 3057 3056 3055 3055 3054 3053 3051 3050 3049 3048 3047 3046 3045 3045 3044 3044 3043 3042 3042 3042 3043 3043 3043 3043 3043 3043 3043 3043 3043 3042
3083 3081 3081 3082 3084 3085 3086 3087 3086 3086 3086 3086 3087 3085 3085 3085 3082 3083 3080 3083 3083 3060 3051 3060 3064 3068 3048 3022 3029 3037 3035 3042 3043 3045 3049 3052 3054 3054 3055 3055 3053 3053 3051 3052 3053 3052 3053 3052 3052 3053 3052 3053 3053 3052 3053 3053 3053 3052 3051 3051 3049 3048 3046 3045 3044 3043 3042 3042 3041 3041 3040 3040 3039 3038 3037 3037 3038 3038 3039 3038 3038 3038 3038 3038 3038 3038
3078 3076 3078 3079 3080 3081 3082 3082 3081 3081 3082 3082 3082 3082 3085 3085 3082 3081 3079 3079 3074 3055 3049 3056 3059 3055 3032 3019 3031 3036 3034 3037 3039 3042 3044 3045 3048 3049 3050 3050 3049 3049 3048 3047 3048 3048 3050 3050 3049 3050 3049 3049 3049 3049 3049 3049 3049 3048 3047 3046 3045 3044 3042 3040 3040 3038 3038 3037 3036 3036 3036 3036 3035 3034 3033 3033 3033 3033 3034 3034 3033 3033 3033 3033 3033 3033
3074 3072 3073 3075 3074 3077 3077 3077 3077 3076 3077 3076 3075 3077 3080 3081 3081 3079 3076 3071 3062 3051 3049 3054 3055 3042 3021 3018 3029 3031 3032 3034 3034 3039 3041 3040 3042 3043 3044 3045 3044 3045 3044 3044 3045 3045 3046 3047 3046 3046 3045 3046 3046 3046 3045 3045 3044 3044 3043 3042 3040 3039 3037 3036 3035 3034 3033 3032 3032 3032 3031 3031 3030 3029 3029 3029 3029 3029 3029 3029 3028 3028 3028 3028 3028 3028
3072 3066 3064 3068 3070 3071 3071 3072 3074 3072 3071 3069 3069 3073 3071 3071 3074 3072 3068 3061 3054 3050 3049 3050 3046 3031 3018 3018 3021 3023 3028 3030 3031 3035 3037 3037 3038 3039 3039 3039 3039 3040 3040 3040 3041 3042 3042 3043 3043 3042 3042 3042 3042 3042 3041 3040 3040 3039 3038 3036 3035 3034 3033 3032 3031 3030 3029 3028 3027 3027 3026 3026 3025 3025 3025 3024 3024 3024 3024 3024 3024 3023 3023 3023 3023 3023
3070 3061 3057 3062 3064 3065 3065 3068 3071 3070 3067 3064 3066 3068 3064 3064 3067 3065 3060 3055 3055 3054 3045 3041 3036 3022 3016 3017 3017 3020 3022 3024 3028 3029 3031 3033 3034 3035 3035 3034 3035 3035 3036 3037 3037 3038 3039 3038 3038 3038 3038 3038 3037 3037 3036 3036 3035 3033 3033 3031 3030 3029 3028 3027 3026 3025 3024 3023 3023 3022 3021 3020 3020 3020 3020 3020 3020 3019 3019 3019 3019 3018 3018 3018 3018 3017
3065 3059 3057 3057 3056 3058 3060 3063 3066 3066 3062 3060 3060 3060 3059 3061 3062 3061 3058 3055 3058 3056 3039 3031 3027 3019 3017 3011 3007 3015 3018 3019 3024 3024 3026 3029 3028 3030 3030 3029 3031 3031 3032 3033 3033 3034 3034 3034 3034 3033 3034 3034 3033 3032 3031 3031 3030 3028 3027 3026 3025 3024 3023 3022 3021 3020 3020 3019 3018 3017 3016 3015 3015 3015 3015 3015 3015 3015 3014 3014 3013 3013 3013 3013 3013 3012
3061 3057 3056 3054 3050 3053 3056 3058 3060 3059 3056 3056 3056 3055 3056 3059 3058 3058 3060 3057 3058 3054 3037 3027 3023 3020 3018 3005 2997 3009 3015 3015 3020 3020 3021 3023 3023 3025 3024 3025 3027 3026 3028 3028 3028 3029 3029 3029 3029 3028 3029 3029 3028 3027 3026 3026 3025 3023 3022 3021 3020 3019 3018 3017 3016 3015 3014 3014 3013 3012 3011 3011 3010 3010 3010 3010 3010 3010 3009 3009 3008 3008 3008 3008 3008 3007
3058 3053 3053 3052 3047 3048 3052 3053 3052 3050 3052 3053 3052 3052 3053 3052 3052 3054 3057 3055 3054 3051 3037 3027 3022 3015 3009 3000 2997 3007 3010 3010 3014 3015 3016 3017 3018 3019 3020 3022 3023 3022 3023 3024 3024 3024 3024 3024 3024 3023 3024 3024 3022 3022 3021 3021 3020 3018 3017 3016 3014 3014 3013 3012 3011 3010 3009 3008 3008 3007 3006 3006 3005 3005 3005 3005 3005 3004 3004 3004 3003 3003 3003 3002 3002 3002
3053 3049 3048 3048 3045 3046 3047 3045 3043 3045 3049 3049 3048 3048 3047 3046 3047 3046 3048 3047 3046 3044 3035 3030 3023 3005 2994 2998 3001 3004 3006 3007 3009 3010 3011 3013 3014 3015 3016 3017 3018 3018 3018 3019 3019 3019 3019 3019 3019 3018 3018 3017 3017 3016 3016 3015 3014 3013 3012 3010 3009 3009 3008 3007 3006 3005 3004 3003 3003 3002 3001 3000 3000 3000 3000 2999 2999 2999 2999 2998 2998 2998 2997 2997 2997 2997
3048 3044 3042 3043 3043 3042 3038 3035 3037 3041 3044 3043 3043 3043 3041 3041 3043 3042 3041 3038 3036 3035 3032 3031 3022 2997 2987 2997 3001 3001 3005 3006 3007 3008 3009 3011 3011 3011 3012 3012 3013 3013 3013 3013 3014 3013 3013 3013 3013 3012 3011 3011 3011 3010 3010 3010 3008 3008 3007 3005 3004 3003 3002 3002 3001 3000 2999 2998 2997 2996 2996 2995 2994 2994 2994 2994 2994 2993 2993 2993 2993 2992 2992 2991 2992 2992
3041 3038 3036 3038 3038 3034 3029 3031 3035 3036 3037 3038 3037 3036 3036 3037 3038 3038 3034 3029 3028 3028 3025 3026 3018 2994 2986 2996 2998 2999 3003 3003 3006 3008 3006 3007 3008 3007 3007 3008 3008 3008 3007 3007 3008 3007 3007 3008 3007 3006 3005 3004 3004 3004 3004 3004 3003 3002 3001 2999 2998 2996 2996 2996 2996 2995 2994 2992 2991 2991 2990 2989 2988 2988 2988 2988 2988 2988 2988 2988 2987 2987 2986 2986 2987 2987
3036 3033 3031 3030 3030 3028 3028 3031 3032 3030 3031 3032 3029 3030 3031 3031 3030 3028 3024 3023 3025 3023 3020 3022 3011 2988 2985 2995 2998 2998 3000 2999 3002 3004 3002 3003 3003 3002 3003 3003 3003 3003 3002 3001 3002 3002 3001 3001 3001 3000 2999 2998 2997 2998 2998 2997 2997 2996 2994 2993 2991 2990 2990 2990 2990 2990 2988 2987 2986 2985 2984 2984 2983 2983 2983 2983 2983 2982 2982 2982 2982 2982 2981 2981 2981 2982
3031 3027 3026 3025 3025 3026 3027 3028 3026 3024 3024 3024 3023 3025 3025 3023 3023 3021 3019 3022 3021 3017 3018 3016 3000 2984 2985 2994 2997 2997 2997 2996 2997 2998 2998 2998 2997 2998 2999 2998 2997 2997 2996 2996 2995 2995 2995 2995 2994 2993 2992 2992 2991 2992 2992 2991 2991 2990 2988 2987 2985 2984 2984 2983 2983 2983 2982 2981 2980 2979 2979 2978 2978 2978 2978 2978 2977 2977 2977 2977 2976 2976 2976 2976 2976 2976
3025 3022 3022 3023 3024 3024 3024 3023 3020 3018 3018 3018 3019 3021 3020 3019 3021 3019 3019 3020 3013 3011 3014 3005 2988 2984 2989 2993 2994 2994 2993 2992 2993 2993 2993 2993 2992 2993 2994 2993 2992 2991 2990 2990 2989 2989 2989 2988 2988 2987 2986 2985 2985 2985 2985 2985 2984 2983 2981 2980 2978 2978 2977 2976 2976 2976 2976 2975 2974 2973 2973 2973 2973 2973 2973 2973 2972 2972 2972 2971 2971 2971 2970 2971 2971 2971
3021 3020 3020 3021 3021 3019 3018 3017 3015 3015 3016 3016 3016 3018 3017 3017 3018 3016 3016 3014 3007 3006 3006 2995 2985 2987 2991 2992 2992 2990 2988 2988 2989 2989 2989 2989 2987 2988 2988 2987 2986 2984 2983 2983 2982 2982 2982 2981 2981 2980 2979 2979 2978 2978 2978 2978 2978 2976 2975 2973 2972 2971 2970 2969 2969 2969 2969 2968 2968 2967 2967 2967 2967 2967 2967 2968 2967 2967 2966 2965 2965 2965 2965 2965 2965 2965
3015 3015 3015 3015 3013 3013 3013 3012 3014 3014 3013 3012 3013 3013 3013 3014 3014 3014 3011 3006 3004 3002 2995 2989 2989 2988 2988 2990 2986 2981 2981 2983 2984 2984 2984 2984 2983 2982 2982 2981 2979 2978 2976 2976 2976 2976 2975 2975 2974 2973 2972 2972 2971 2971 2971 2971 2971 2969 2968 2966 2965 2964 2963 2962 2962 2962 2961 2961 2961 2960 2960 2960 2961 2961 2962 2962 2961 2961 2960 2960 2960 2960 2959 2959 2959 2959
3009 3007 3009 3009 3006 3007 3008 3008 3011 3011 3007 3006 3006 3006 3007 3008 3009 3009 3004 3001 3003 2997 2983 2985 2992 2985 2982 2985 2980 2974 2974 2975 2976 2978 2977 2977 2977 2975 2975 2974 2972 2971 2970 2970 2969 2969 2969 2968 2967 2966 2965 2965 2964 2964 2964 2963 2963 2961 2960 2959 2958 2957 2956 2956 2955 2955 2954 2954 2954 2954 2954 2954 2954 2955 2955 2955 2955 2955 2955 2955 2955 2954 2954 2954 2954 2954
3001 2997 3001 3001 2997 2998 3002 3002 3003 3003 2999 2997 2997 2997 2998 2999 2999 3000 2996 2993 2995 2988 2978 2984 2988 2977 2973 2978 2975 2970 2968 2966 2968 2970 2969 2968 2968 2968 2968 2967 2965 2965 2964 2964 2963 2963 2963 2961 2960 2960 2959 2958 2958 2957 2956 2956 2955 2954 2953 2951 2951 2950 2950 2950 2949 2949 2948 2948 2947 2948 2948 2948 2948 2948 2949 2949 2949 2949 2949 2949 2949 2948 2948 2948 2949 2948
2994 2988 2991 2992 2987 2988 2992 2992 2992 2991 2988 2986 2987 2986 2988 2988 2988 2988 2983 2980 2982 2979 2975 2978 2975 2967 2967 2970 2967 2964 2962 2962 2962 2962 2960 2959 2958 2959 2960 2959 2959 2958 2957 2958 2958 2957 2956 2955 2954 2953 2952 2951 2951 2950 2949 2948 2947 2946 2946 2945 2945 2944 2944 2944 2944 2943 2942 2942 2942 2942 2942 2942 2942 2942 2942 2942 2942 2942 2942 2942 2942 2942 2942 2942 2943 2943
2987 2981 2983 2985 2980 2977 2981 2981 2979 2980 2978 2976 2976 2978 2982 2981 2976 2973 2971 2970 2971 2967 2964 2965 2963 2960 2961 2960 2957 2957 2957 2957 2956 2953 2951 2951 2951 2951 2951 2951 2952 2951 2950 2952 2952 2951 2950 2949 2948 2947 2945 2945 2944 2943 2942 2941 2940 2940 2940 2940 2940 2939 2939 2939 2938 2937 2936 2936 2936 2936 2936 2936 2937 2937 2937 2937 2937 2937 2937 2936 2936 2936 2936 2936 2937 2937
2979 2975 2976 2979 2971 2965 2971 2972 2968 2970 2970 2968 2969 2972 2972 2966 2959 2957 2959 2959 2959 2956 2953 2955 2954 2950 2950 2951 2951 2952 2951 2950 2948 2945 2944 2944 2945 2944 2943 2943 2945 2945 2945 2946 2946 2945 2945 2943 2942 2940 2939 2938 2937 2937 2936 2936 2935 2935 2935 2935 2935 2934 2934 2933 2932 2931 2931 2931 2931 2931 2931 2932 2932 2932 2932 2932 2932 2932 2932 2931 2930 2930 2930 2930 2930 2930
2971 2968 2969 2971 2962 2956 2963 2963 2960 2964 2962 2956 2958 2960 2955 2950 2949 2949 2950 2949 2950 2949 2945 2943 2940 2939 2941 2945 2945 2944 2943 2941 2939 2939 2939 2939 2938 2937 2935 2937 2939 2939 2940 2939 2939 2939 2938 2937 2936 2934 2933 2933 2932 2932 2932 2931 2930 2930 2930 2930 2929 2929 2928 2927 2927 2926 2926 2926 2926 2926 2927 2927 2927 2927 2927 2927 2926 2926 2926 2925 2925 2924 2924 2924 2924 2924
2963 2961 2962 2963 2956 2950 2955 2959 2957 2953 2944 2938 2945 2948 2944 2945 2946 2942 2939 2938 2940 2940 2937 2933 2932 2934 2937 2938 2937 2935 2934 2932 2930 2932 2934 2934 2931 2929 2928 2931 2933 2934 2934 2933 2933 2932 2931 2930 2930 2929 2928 2928 2927 2926 2926 2925 2925 2925 2925 2924 2924 2924 2923 2923 2922 2922 2921 2922 2922 2922 2922 2922 2922 2922 2922 2921 2921 2920 2920 2920 2919 2919 2918 2918 2918 2918
2957 2955 2954 2954 2950 2945 2950 2955 2947 2933 2926 2930 2937 2941 2942 2943 2941 2934 2929 2930 2933 2932 2930 2926 2925 2928 2930 2929 2928 2926 2924 2922 2922 2924 2928 2927 2925 2924 2923 2925 2929 2930 2928 2928 2927 2927 2926 2925 2924 2923 2923 2922 2921 2920 2920 2920 2920 2920 2919 2919 2919 2918 2918 2918 2917 2917 2917 2917 2917 2917 2917 2917 2917 2917 2916 2916 2915 2914 2914 2914 2913 2913 2912 2912 2912 2912
2950 2949 2947 2946 2943 2940 2943 2943 2930 2919 2922 2928 2930 2935 2940 2937 2933 2929 2920 2917 2922 2922 2920 2918 2918 2920 2921 2919 2918 2917 2915 2916 2917 2918 2920 2919 2918 2919 2918 2919 2923 2925 2923 2923 2922 2921 2921 2920 2919 2918 2917 2916 2916 2915 2915 2915 2914 2913 2913 2913 2913 2913 2913 2913 2912 2912 2912 2912 2911 2911 2911 2911 2911 2911 2910 2910 2909 2909 2909 2908 2907 2907 2906 2906 2907 2906
2942 2941 2941 2938 2935 2935 2933 2926 2919 2917 2918 2921 2922 2929 2933 2928 2926 2923 2906 2897 2909 2916 2914 2914 2914 2913 2913 2910 2909 2910 2911 2912 2911 2910 2911 2912 2913 2914 2912 2912 2916 2919 2918 2918 2917 2916 2916 2915 2914 2913 2912 2911 2911 2910 2910 2910 2909 2908 2907 2907 2907 2908 2908 2907 2907 2907 2906 2906 2906 2906 2906 2906 2906 2905 2905 2904 2904 2903 2903 2902 2901 2901 2900 2900 2900 2900
2932 2932 2934 2930 2924 2926 2923 2915 2915 2911 2905 2908 2915 2921 2924 2921 2920 2918 2899 2885 2900 2914 2912 2909 2907 2904 2904 2903 2903 2906 2907 2905 2902 2900 2904 2907 2909 2909 2908 2907 2909 2911 2912 2913 2913 2912 2911 2911 2909 2908 2907 2906 2906 2906 2906 2905 2904 2903 2902 2902 2902 2903 2902 2902 2902 2902 2902 2902 2901 2901 2901 2901 2901 2900 2900 2899 2899 2898 2897 2897 2895 2895 2894 2894 2894 2894
2923 2923 2926 2921 2914 2918 2916 2906 2904 2899 2893 2901 2910 2912 2916 2914 2913 2914 2896 2879 2891 2907 2905 2901 2899 2897 2898 2899 2899 2902 2900 2895 2892 2894 2898 2902 2902 2903 2902 2901 2902 2903 2904 2906 2907 2906 2905 2904 2903 2902 2902 2902 2902 2902 2901 2900 2899 2898 2897 2897 2897 2897 2897 2897 2897 2897 2897 2897 2897 2896 2896 2896 2895 2895 2895 2894 2893 2892 2891 2891 2890 2889 2888 2888 2887 2889
2915 2915 2916 2911 2905 2908 2906 2896 2893 2891 2889 2896 2902 2903 2907 2908 2909 2908 2890 2875 2885 2897 2895 2893 2893 2892 2895 2896 2895 2894 2891 2887 2886 2889 2893 2895 2895 2895 2894 2894 2895 2896 2897 2899 2900 2900 2898 2898 2897 2897 2896 2897 2896 2896 2896 2895 2894 2894 2893 2892 2891 2890 2891 2891 2891 2891 2891 2891 2891 2891 2890 2890 2890 2889 2889 2888 2887 2887 2885 2884 2883 2882 2882 2882 2882 2884
2906 2905 2903 2899 2895 2897 2897 2889 2885 2884 2885 2890 2895 2897 2902 2904 2901 2895 2884 2879 2886 2888 2886 2888 2889 2889 2890 2890 2888 2886 2884 2882 2883 2883 2885 2887 2887 2888 2888 2888 2889 2889 2890 2892 2893 2893 2892 2891 2890 2891 2891 2891 2890 2890 2890 2889 2888 2888 2887 2886 2885 2885 2886 2885 2885 2885 2885 2885 2885 2885 2884 2885 2884 2884 2883 2882 2881 2881 2879 2878 2877 2876 2876 2877 2878 2879
2901 2897 2894 2894 2892 2892 2891 2886 2881 2880 2882 2885 2889 2893 2898 2897 2891 2884 2880 2882 2882 2878 2880 2883 2883 2881 2881 2880 2879 2877 2875 2874 2875 2874 2876 2877 2878 2879 2880 2880 2882 2883 2884 2885 2885 2885 2884 2883 2884 2884 2884 2885 2885 2884 2884 2883 2882 2882 2881 2881 2881 2881 2880 2879 2879 2879 2879 2879 2879 2879 2878 2878 2878 2878 2877 2876 2875 2874 2873 2872 2871 2871 2871 2872 2873 2874
2898 2893 2888 2889 2890 2888 2886 2883 2880 2878 2878 2879 2882 2888 2891 2888 2881 2876 2875 2876 2874 2872 2873 2875 2873 2872 2872 2871 2871 2869 2866 2866 2866 2866 2867 2869 2869 2870 2870 2871 2872 2873 2874 2875 2875 2876 2876 2876 2876 2877 2877 2878 2878 2878 2878 2877 2876 2876 2876 2876 2876 2875 2874 2873 2872 2872 2873 2873 2872 2872 2872 2871 2871 2871 2870 2869 2869 2868 2867 2866 2865 2865 2865 2866 2867 2868
2894 2891 2886 2884 2884 2882 2879 2876 2875 2875 2876 2875 2876 2879 2881 2878 2873 2871 2869 2869 2868 2866 2866 2867 2867 2866 2865 2864 2865 2862 2860 2859 2859 2858 2859 2860 2861 2862 2862 2862 2863 2864 2864 2865 2865 2866 2867 2868 2869 2870 2870 2870 2871 2870 2870 2870 2869 2869 2869 2870 2870 2869 2867 2867 2867 2866 2866 2865 2865 2865 2865 2864 2864 2863 2863 2862 2862 2861 2860 2859 2859 2859 2859 2860 2861 2863
2889 2887 2884 2881 2880 2878 2875 2873 2872 2871 2872 2873 2871 2871 2872 2870 2869 2868 2865 2862 2861 2860 2859 2859 2858 2858 2858 2857 2856 2855 2853 2852 2852 2852 2852 2852 2853 2855 2855 2855 2856 2857 2857 2858 2858 2859 2860 2860 2862 2863 2863 2863 2863 2862 2863 2863 2862 2862 2862 2863 2863 2862 2862 2862 2861 2860 2859 2858 2857 2857 2857 2857 2857 2856 2856 2856 2855 2854 2853 2852 2852 2853 2854 2855 2857 2858
2885 2883 2880 2877 2876 2873 2870 2870 2871 2870 2869 2869 2867 2866 2865 2864 2862 2862 2860 2857 2855 2853 2852 2851 2850 2850 2850 2849 2848 2847 2846 2845 2845 2845 2846 2846 2847 2848 2848 2848 2849 2850 2851 2851 2852 2852 2852 2853 2854 2855 2856 2856 2856 2856 2856 2856 2855 2855 2856 2856 2856 2856 2856 2856 2855 2854 2853 2850 2849 2849 2848 2849 2849 2849 2849 2849 2848 2847 2846 2846 2846 2847 2848 2850 2852 2853
2880 2880 2877 2873 2872 2869 2864 2864 2866 2866 2865 2864 2862 2859 2859 2858 2857 2857 2855 2852 2849 2846 2845 2844 2844 2843 2843 2842 2842 2840 2839 2840 2840 2839 2839 2840 2839 2840 2841 2842 2843 2844 2844 2844 2845 2844 2844 2844 2846 2847 2848 2848 2848 2848 2848 2848 2847 2848 2848 2848 2848 2848 2848 2848 2847 2847 2846 2844 2842 2841 2840 2840 2840 2841 2841 2842 2841 2841 2840 2840 2840 2841 2842 2845 2847 2848
2876 2874 2870 2867 2866 2864 2860 2860 2861 2860 2859 2860 2858 2854 2853 2851 2850 2849 2848 2845 2842 2840 2838 2838 2838 2836 2835 2835 2835 2834 2833 2834 2834 2833 2832 2832 2832 2833 2834 2834 2835 2836 2836 2837 2837 2836 2835 2836 2836 2837 2837 2838 2838 2839 2839 2839 2839 2839 2839 2839 2839 2840 2840 2840 2840 2839 2838 2837 2835 2833 2831 2831 2831 2832 2833 2834 2834 2834 2833 2834 2834 2835 2838 2839 2841 2843
2876 2870 2865 2863 2860 2855 2854 2856 2856 2852 2848 2849 2850 2850 2848 2845 2841 2839 2838 2836 2835 2833 2832 2831 2831 2830 2829 2828 2827 2827 2826 2827 2827 2827 2826 2825 2825 2825 2825 2825 2826 2827 2827 2828 2828 2827 2827 2827 2827 2827 2828 2828 2829 2830 2830 2830 2830 2830 2830 2829 2829 2830 2831 2831 2831 2831 2830 2829 2827 2825 2823 2822 2823 2824 2825 2826 2826 2827 2827 2828 2829 2830 2832 2834 2836 2838
2873 2866 2863 2862 2857 2851 2850 2852 2852 2846 2840 2838 2840 2841 2842 2841 2837 2833 2831 2830 2829 2827 2825 2824 2824 2824 2824 2823 2822 2820 2819 2819 2820 2819 2817 2817 2818 2818 2817 2818 2818 2817 2818 2818 2818 2817 2818 2817 2817 2818 2818 2820 2821 2820 2820 2821 2820 2819 2820 2820 2820 2820 2821 2822 2822 2822 2821 2820 2819 2817 2816 2815 2815 2815 2816 2817 2818 2819 2820 2821 2822 2823 2825 2827 2830 2832
2869 2864 2863 2861 2854 2849 2848 2850 2851 2847 2840 2836 2837 2836 2836 2836 2833 2829 2828 2826 2824 2822 2820 2819 2817 2817 2816 2817 2817 2816 2814 2812 2811 2810 2808 2808 2808 2808 2808 2808 2808 2807 2808 2808 2808 2808 2808 2808 2807 2807 2808 2810 2810 2809 2809 2809 2809 2809 2810 2810 2810 2811 2812 2813 2813 2813 2813 2812 2811 2810 2809 2808 2808 2808 2808 2809 2810 2811 2812 2813 2815 2816 2818 2821 2824 2827